[[{"header":{"parameterUnit":"m.s-1","parameterCategory":1,"la1":30.2992,"la2":30.254,"lo1":-89.0895,"lo2":-89.0443,"dy":0.0025,"dx":0.0025,"nx":19,"ny":19,"refTime":"2026-04-12T03:00:00:Z","depth":0,"parameterNumber":2,"parameterNumberName":"U-component_of_WINDS"},"data":[0,0,0,-1.1639,-1.1639,-1.1608,-1.1607,-1.1589,-1.1589,0,0,0,0,0,0,0,0,0,0,0,-1.1661,-1.1661,-1.1639,-1.1639,-1.1608,-1.1607,-1.1589,-1.1589,0,0,0,0,0,0,0,0,0,0,0,-1.1661,-1.1661,-1.1661,-1.1639,-1.1608,-1.1607,-1.1589,-1.1605,0,0,0,0,0,0,0,0,0,0,-1.1632,-1.1664,-1.1661,-1.1661,-1.1639,-1.1608,-1.1607,-1.1606,-1.1604,-1.1613,0,-1.1622,0,-1.1605,-1.1589,-1.1589,0,0,0,-1.163,-1.1665,-1.1645,-1.1661,-1.1639,-1.1608,-1.1619,-1.1605,-1.1603,-1.1611,-1.1622,-1.162,-1.1605,-1.1589,-1.1589,-1.1664,-1.1665,0,0,-1.1632,-1.1662,-1.1646,-1.1645,-1.165,-1.162,-1.1618,-1.1603,-1.1618,-1.1621,-1.162,-1.1605,-1.1589,-1.1589,-1.1664,-1.1665,0,0,0,-1.1643,-1.1664,-1.1644,-1.1646,-1.1639,-1.162,-1.1617,-1.1618,-1.1609,-1.1619,-1.1605,-1.1589,-1.1589,-1.1663,-1.1664,-1.1731,0,0,0,-1.1643,-1.167,-1.1645,-1.1663,-1.1639,-1.1628,-1.1633,-1.161,-1.1608,-1.1605,-1.1589,-1.1589,-1.1662,-1.1663,-1.1728,-1.1759,0,0,0,-1.1659,-1.1671,-1.1671,-1.1665,-1.1652,-1.1627,-1.1617,-1.1609,-1.1599,-1.1589,-1.1589,-1.1661,-1.1663,-1.1724,-1.1753,-1.1788,0,0,0,-1.1684,-1.1731,-1.1673,-1.172,-1.1653,-1.1669,-1.1617,-1.1627,-1.1627,-1.1589,-1.1662,-1.1664,-1.1723,-1.175,-1.1785,-1.1824,-1.1842,0,0,-1.1761,-1.1742,-1.1767,-1.1714,-1.1748,-1.1671,-1.1715,-1.1687,-1.1658,-1.1664,-1.1666,-1.1729,-1.1753,-1.1787,-1.1935,-1.195,0,0,0,-1.1802,-1.1821,-1.1823,-1.1823,-1.1802,-1.1787,-1.1748,-1.1738,-1.1741,-1.1667,-1.1749,-1.1763,-1.1782,-1.1799,-1.1812,-1.1827,-1.1673,-1.1672,-1.1672,-1.1954,-1.1915,-1.1955,-1.1912,-1.1914,-1.1873,-1.1871,-1.185,-1.181,-1.1831,-1.1833,-1.1927,-1.1948,-1.1957,-1.1974,-1.1849,-1.1849,-1.1849,-1.185,-1.2064,-1.2085,-1.2031,-1.205,-1.2009,-1.2025,-1.1988,-1.196,-1.197,-1.1922,-1.1937,-1.1889,-1.1975,-1.1988,-1.1854,-1.1853,-1.1853,-1.1852,-1.1852,-1.2161,-1.2164,-1.215,-1.2147,-1.215,-1.2105,-1.2117,-1.2079,-1.2043,-1.2058,-1.2056,-1.2055,-1.205,-1.2059,-1.206,-1.206,-1.206,-1.206,-1.2061,-1.2267,-1.2249,-1.2263,-1.2245,-1.2241,-1.223,-1.219,-1.2185,-1.2171,-1.2142,-1.2142,-1.2102,-1.199,-1.1964,-1.2066,-1.2065,-1.2064,-1.2064,-1.2063,-1.2395,-1.236,-1.2383,-1.2378,-1.2354,-1.236,-1.2311,-1.2304,-1.2295,-1.2302,-1.2258,-1.2182,-1.216,-1.215,-1.2128,-1.2265,-1.2265,-1.2265,-1.2265,-1.2478,-1.2463,-1.2477,-1.2473,-1.2465,-1.2423,-1.2451,-1.2421,-1.2385,-1.2377,-1.2351,-1.2318,-1.2309,-1.2293,-1.2279,-1.2258,-1.2426,-1.2426,-1.2426,-1.2555,-1.2537,-1.2568,-1.2531,-1.2509,-1.2492,-1.2518,-1.2517,-1.2468,-1.2432,-1.237,-1.2363,-1.231,-1.2294,-1.2258,-1.2238,-1.2198,0,0]},{"header":{"parameterUnit":"m.s-1","parameterCategory":1,"la1":30.2992,"la2":30.254,"lo1":-89.0895,"lo2":-89.0443,"dy":0.0025,"dx":0.0025,"nx":19,"ny":19,"refTime":"2026-04-12T03:00:00:Z","depth":0,"parameterNumber":3,"parameterNumberName":"V-component_of_WINDS"},"data":[0,0,0,3.299,3.2991,3.3026,3.3026,3.3083,3.3084,0,0,0,0,0,0,0,0,0,0,0,3.2988,3.2988,3.299,3.2991,3.3026,3.3026,3.3083,3.3084,0,0,0,0,0,0,0,0,0,0,0,3.2987,3.2988,3.2989,3.2991,3.3026,3.3026,3.3083,3.3052,0,0,0,0,0,0,0,0,0,0,3.3015,3.3022,3.2988,3.2989,3.2991,3.3026,3.3026,3.305,3.3054,3.3072,0,3.3092,0,3.3089,3.3088,3.3089,0,0,0,3.2984,3.3019,3.3021,3.2989,3.2992,3.3026,3.3008,3.3052,3.3056,3.3077,3.3093,3.3095,3.309,3.3089,3.3089,3.322,3.3221,0,0,3.2983,3.2998,3.3018,3.3024,3.302,3.3007,3.3009,3.3054,3.3072,3.3093,3.3096,3.3091,3.3089,3.309,3.3219,3.3221,0,0,0,3.2981,3.2997,3.2998,3.3022,3.3027,3.3008,3.3011,3.307,3.3069,3.3096,3.3092,3.309,3.309,3.3218,3.322,3.3279,0,0,0,3.298,3.2996,3.2997,3.3007,3.3027,3.3049,3.3026,3.3066,3.307,3.3091,3.309,3.3091,3.3217,3.3219,3.3275,3.3304,0,0,0,3.2982,3.2996,3.3004,3.3008,3.3024,3.3048,3.3049,3.3066,3.3068,3.3089,3.3091,3.3217,3.3219,3.3272,3.3299,3.3343,0,0,0,3.2989,3.3057,3.3006,3.3079,3.3024,3.3085,3.3049,3.3094,3.3119,3.309,3.3218,3.322,3.3271,3.3295,3.3339,3.3382,3.3401,0,0,3.3083,3.3069,3.3111,3.3066,3.3141,3.3079,3.3162,3.317,3.3158,3.32,3.3203,3.3277,3.3298,3.3342,3.3507,3.3523,0,0,0,3.3146,3.3176,3.3192,3.3217,3.3226,3.3234,3.3228,3.3231,3.3266,3.3183,3.3305,3.3317,3.3342,3.3361,3.3375,3.3394,3.323,3.3229,3.3229,3.33,3.3281,3.3348,3.3333,3.3358,3.3351,3.3369,3.3371,3.3345,3.3374,3.3386,3.3488,3.3512,3.3522,3.3543,3.3408,3.3408,3.3408,3.3408,3.3434,3.3473,3.3437,3.3489,3.3468,3.3512,3.3507,3.3487,3.3524,3.3478,3.3499,3.3449,3.354,3.3557,3.3413,3.3412,3.3411,3.3411,3.3411,3.3532,3.3547,3.355,3.3584,3.3612,3.3594,3.3631,3.3611,3.3592,3.3613,3.3623,3.3622,3.3617,3.3619,3.362,3.362,3.362,3.3621,3.3621,3.3632,3.3633,3.3667,3.3681,3.3694,3.3709,3.3702,3.3714,3.3722,3.3704,3.3704,3.3674,3.3553,3.3522,3.3626,3.3625,3.3625,3.3624,3.3624,3.3773,3.3738,3.379,3.3804,3.3818,3.3847,3.3821,3.3847,3.3854,3.3872,3.3838,3.3752,3.3735,3.3725,3.3699,3.3843,3.3843,3.3843,3.3843,3.3855,3.3845,3.3893,3.3915,3.3935,3.3916,3.3975,3.3971,3.3961,3.3964,3.394,3.3905,3.3895,3.3884,3.387,3.3845,3.4023,3.4024,3.4024,3.394,3.3931,3.3985,3.3975,3.3985,3.3994,3.4048,3.4074,3.4055,3.4031,3.3965,3.3958,3.39,3.3883,3.3855,3.3834,3.3788,0,0]}]]